Regional Weather Roundup
Issued by NWS

Home | Current Version | Previous Version | Graphics & Text | Print | Product List | Glossary On
Versions: 1 2 3 4 5 6 7 8 9 10 11 12 13 14 15 16 17 18 19 20 21 22 23 24 25 26 27 28 29 30 31 32 33 34 35 36 37 38 39 40 41 42 43 44 45 46 47 48 49 50
000
ASUS45 KCYS 120110
RWRWY

WYOMING REGIONAL WEATHER ROUNDUP
NATIONAL WEATHER SERVICE CHEYENNE WY
700 PM MDT FRI JUL 11 2014

NOTE:  "FAIR" INDICATES FEW OR NO CLOUDS BELOW 12,000 FEET
WITH NO SIGNIFICANT WEATHER AND/OR OBSTRUCTIONS TO VISIBILITY.

WYZ001-120200-
YELLOWSTONE NATIONAL PARK

CITY           SKY/WX    TMP DP  RH WIND       PRES   REMARKS
LK YELLOWSTONE   N/A     58  53  84 NE3       30.38R
W YELLOWSTONE  NOT AVBL

$$
WYZ002>013-054>058-071-098>099-120200-
NORTHERN WYOMING

CITY           SKY/WX    TMP DP  RH WIND       PRES   REMARKS
JACKSON        CLOUDY    61  55  82 N16       30.27R
CODY           CLOUDY    68  55  64 N6        30.19R
GREYBULL       CLOUDY    71  58  63 E36G45    30.09R SQUALL  THUNDER
WORLAND        CLOUDY    76  54  46 S6        30.11R
SHERIDAN       CLOUDY    78  61  55 N3        30.07F
BUFFALO        CLOUDY    68  55  63 S16G29    30.19R
GILLETTE       CLOUDY    68  60  75 W6        30.16R
HULETT         CLOUDY    70  59  68 MISG      30.16
NEWCASTLE      FAIR      63  55  77 CALM      30.14

$$
WYZ014>020-022>026-101>103-120200-
CENTRAL WYOMING

CITY           SKY/WX    TMP DP  RH WIND       PRES   REMARKS
BIG PINEY      CLOUDY    69  48  47 E6        30.29S
PINEDALE       LGT RAIN  64  46  52 CALM      30.30F
DUBOIS         FAIR      57  52  82 E7        30.33R
LANDER         LGT RAIN  62  58  86 CALM      30.27R
RIVERTON       LGT RAIN  62  58  86 CALM      30.26R
CASPER         CLOUDY    70  52  52 E12       30.21R
DOUGLAS        CLOUDY    65  57  75 NE23G30   30.19R

$$
WYZ021-027>030-104>119-120200-
SOUTHERN WYOMING

CITY           SKY/WX    TMP DP  RH WIND       PRES   REMARKS
EVANSTON       MOSUNNY   69  54  58 CALM      30.27R
KEMMERER       CLOUDY   N/A N/A N/A E3        30.29R
FORT BRIDGER   CLOUDY    69  52  54 S7        30.30S
ROCK SPRINGS   LGT RAIN  66  57  72 W16G23    30.27R
DIXON          FAIR      76  51  41 N7        30.20R
RAWLINS        CLOUDY    76  53  44 NE10      30.23R
SARATOGA       MOCLDY    61  55  82 NW21      30.26R THUNDER
LARAMIE        CLOUDY    65  58  78 NE6       30.28R
CHEYENNE       PTSUNNY   73  59  61 NE10      30.22R
TORRINGTON     CLOUDY    75  61  61 CALM      30.10R

$$


USA.gov is the U.S. government's official web portal to all federal, state and local government web resources and services.